IRNSS-1A

Last updated on Wed Mar 11 2026 00:02:53 GMT+0000 (Coordinated Universal Time)

1 39199U 13034A 26069.08169569 .00000082 00000+0 00000+0 0 9997 2 39199 35.5027 65.2845 0017530 190.8198 355.9813 1.00271748 46371
UTC large
Height (km)
Speed (km/s)
/
Latitude / Longitude
Inclination (degrees)
Orbital Period (minutes)
Azimuth
Elevation
Range (km)
Doppler Factor

Next 0 passes for location: London (51.5072 / 0.1276)

Sorry there are no passes over London.